Meteo pe oră la Dabrowka

Astăzi, 11 Aprilie, Duminică

Timp Temperatura Precipitaţii Vânt Presiune Umiditate
00:00 +8°C° 0 mm 3 m/s 749 mmHg 73%
01:00 +8°C° 0 mm 3 m/s 749 mmHg 74%
02:00 +7°C° 0 mm 3 m/s 749 mmHg 75%
03:00 +7°C° 0 mm 3 m/s 750 mmHg 75%
04:00 +7°C° 0 mm 3 m/s 750 mmHg 76%
05:00 +7°C° 0 mm 4 m/s 750 mmHg 74%
06:00 +8°C° 0 mm 4 m/s 750 mmHg 71%
07:00 +8°C° 0 mm 5 m/s 750 mmHg 69%
08:00 +10°C° 0 mm 5 m/s 750 mmHg 62%
09:00 +13°C° 0 mm 6 m/s 750 mmHg 55%
10:00 +15°C° 0 mm 7 m/s 750 mmHg 48%
11:00 +16°C° 0 mm 7 m/s 750 mmHg 46%
12:00 +17°C° 0 mm 8 m/s 749 mmHg 43%
13:00 +18°C° 0 mm 8 m/s 749 mmHg 41%
14:00 +17°C° 0 mm 7 m/s 749 mmHg 43%
15:00 +17°C° 0 mm 7 m/s 749 mmHg 44%
16:00 +17°C° 0 mm 6 m/s 749 mmHg 46%
17:00 +15°C° 0 mm 5 m/s 749 mmHg 51%
18:00 +14°C° 0 mm 5 m/s 749 mmHg 55%
19:00 +13°C° 0 mm 4 m/s 749 mmHg 60%
20:00 +12°C° 0 mm 5 m/s 750 mmHg 62%
21:00 +12°C° 0 mm 5 m/s 750 mmHg 63%
22:00 +10°C° 0 mm 5 m/s 750 mmHg 64%
23:00 +10°C° 0 mm 5 m/s 750 mmHg 65%

Mâine, 12 Aprilie, Luni

Timp Temperatura Precipitaţii Vânt Presiune Umiditate
00:00 +9°C° 0 mm 5 m/s 750 mmHg 66%
01:00 +10°C° 0 mm 4 m/s 750 mmHg 67%
02:00 +9°C° 0 mm 5 m/s 749 mmHg 69%
03:00 +9°C° 0 mm 5 m/s 749 mmHg 70%
04:00 +9°C° 0 mm 5 m/s 749 mmHg 71%
05:00 +9°C° 0 mm 5 m/s 749 mmHg 72%
06:00 +10°C° 0 mm 5 m/s 749 mmHg 72%
07:00 +10°C° 0 mm 5 m/s 749 mmHg 73%
08:00 +12°C° 0 mm 5 m/s 749 mmHg 69%
09:00 +13°C° 0 mm 6 m/s 749 mmHg 66%
10:00 +14°C° 0 mm 6 m/s 749 mmHg 62%
11:00 +15°C° 0.1 mm 6 m/s 748 mmHg 61%
12:00 +15°C° 0.1 mm 6 m/s 748 mmHg 60%
13:00 +16°C° 0.1 mm 6 m/s 748 mmHg 59%
14:00 +15°C° 0.1 mm 6 m/s 748 mmHg 61%
15:00 +14°C° 0.1 mm 5 m/s 748 mmHg 64%
16:00 +14°C° 0.1 mm 5 m/s 748 mmHg 67%
17:00 +13°C° 0 mm 4 m/s 748 mmHg 73%
18:00 +12°C° 0 mm 3 m/s 749 mmHg 80%
19:00 +10°C° 0 mm 3 m/s 749 mmHg 87%
20:00 +10°C° 0 mm 3 m/s 750 mmHg 88%
21:00 +8°C° 0 mm 4 m/s 750 mmHg 88%
22:00 +7°C° 0 mm 4 m/s 750 mmHg 88%
23:00 +6°C° 0 mm 4 m/s 750 mmHg 89%

Poimâine, 13 Aprilie, Marţi

Timp Temperatura Precipitaţii Vânt Presiune Umiditate
00:00 +6°C° 0 mm 4 m/s 750 mmHg 89%
01:00 +5°C° 0 mm 4 m/s 750 mmHg 89%
02:00 +5°C° 0 mm 4 m/s 750 mmHg 89%
03:00 +4°C° 0 mm 4 m/s 751 mmHg 88%
04:00 +3°C° 0 mm 5 m/s 751 mmHg 88%
05:00 +3°C° 0.1 mm 5 m/s 751 mmHg 88%
06:00 +3°C° 0.1 mm 5 m/s 751 mmHg 88%
07:00 +2°C° 0.1 mm 5 m/s 751 mmHg 87%
08:00 +2°C° 0.2 mm 5 m/s 752 mmHg 87%
09:00 +2°C° 0.2 mm 5 m/s 752 mmHg 88%
10:00 +2°C° 0.2 mm 5 m/s 752 mmHg 88%
11:00 +2°C° 0.3 mm 5 m/s 752 mmHg 88%
12:00 +2°C° 0.3 mm 6 m/s 752 mmHg 89%
13:00 +2°C° 0.3 mm 6 m/s 752 mmHg 89%
14:00 +2°C° 0.6 mm 6 m/s 751 mmHg 90%
15:00 +1°C° 0.6 mm 6 m/s 751 mmHg 92%
16:00 +1°C° 0.6 mm 6 m/s 751 mmHg 93%
17:00 +1°C° 0.8 mm 6 m/s 751 mmHg 94%
18:00 +1°C° 0.8 mm 6 m/s 751 mmHg 95%
19:00 +1°C° 0.8 mm 6 m/s 751 mmHg 95%
20:00 +1°C° 0.9 mm 6 m/s 751 mmHg 96%
21:00 +1°C° 0.9 mm 6 m/s 750 mmHg 96%
22:00 +1°C° 0.9 mm 6 m/s 750 mmHg 96%
23:00 -1°C° 1 mm 7 m/s 750 mmHg 96%

14 Aprilie, Miercuri

Timp Temperatura Precipitaţii Vânt Presiune Umiditate
00:00 -1°C° 1 mm 7 m/s 750 mmHg 96%
01:00 -1°C° 1 mm 7 m/s 749 mmHg 97%
02:00 -2°C° 0.9 mm 7 m/s 749 mmHg 97%
03:00 -2°C° 0.9 mm 7 m/s 749 mmHg 97%
04:00 -2°C° 0.9 mm 7 m/s 749 mmHg 97%
05:00 -2°C° 1 mm 7 m/s 749 mmHg 97%
06:00 -2°C° 1 mm 7 m/s 749 mmHg 98%
07:00 -2°C° 1 mm 7 m/s 749 mmHg 98%
08:00 -2°C° 1.1 mm 7 m/s 749 mmHg 98%
09:00 -2°C° 1.1 mm 7 m/s 749 mmHg 98%
10:00 -2°C° 1.1 mm 7 m/s 749 mmHg 99%
11:00 -2°C° 0.7 mm 6 m/s 749 mmHg 99%
12:00 -2°C° 0.7 mm 6 m/s 749 mmHg 99%
13:00 -2°C° 0.7 mm 6 m/s 748 mmHg 99%
14:00 -2°C° 0.4 mm 6 m/s 748 mmHg 99%
15:00 -1°C° 0.4 mm 6 m/s 748 mmHg 99%
16:00 0°C° 0.4 mm 5 m/s 748 mmHg 99%
17:00 0°C° 0.4 mm 5 m/s 748 mmHg 99%
18:00 0°C° 0.4 mm 5 m/s 748 mmHg 99%
19:00 0°C° 0.4 mm 5 m/s 748 mmHg 99%
20:00 0°C° 0.3 mm 5 m/s 748 mmHg 99%
21:00 0°C° 0.3 mm 5 m/s 747 mmHg 99%
22:00 0°C° 0.3 mm 5 m/s 747 mmHg 99%
23:00 0°C° 0.4 mm 4 m/s 747 mmHg 99%

15 Aprilie, Joi

Timp Temperatura Precipitaţii Vânt Presiune Umiditate
00:00 -1°C° 0.4 mm 4 m/s 747 mmHg 99%
01:00 -1°C° 0.4 mm 4 m/s 747 mmHg 99%
02:00 0°C° 0.4 mm 3 m/s 747 mmHg 99%
03:00 0°C° 0.4 mm 3 m/s 747 mmHg 99%
04:00 0°C° 0.4 mm 3 m/s 747 mmHg 99%
05:00 +2°C° 0.4 mm 2 m/s 747 mmHg 99%
06:00 +2°C° 0.4 mm 2 m/s 747 mmHg 99%
07:00 +2°C° 0.4 mm 2 m/s 747 mmHg 99%
08:00 +2°C° 0.1 mm 2 m/s 747 mmHg 99%
09:00 +3°C° 0.1 mm 2 m/s 748 mmHg 99%
10:00 +4°C° 0.1 mm 1 m/s 748 mmHg 98%
11:00 +4°C° 0 mm 2 m/s 748 mmHg 97%
12:00 +5°C° 0 mm 2 m/s 748 mmHg 96%
13:00 +6°C° 0 mm 2 m/s 748 mmHg 95%
14:00 +5°C° 0 mm 3 m/s 748 mmHg 95%
15:00 +5°C° 0 mm 3 m/s 749 mmHg 95%
16:00 +4°C° 0 mm 4 m/s 749 mmHg 96%
17:00 +4°C° 0 mm 4 m/s 749 mmHg 95%
18:00 +4°C° 0 mm 4 m/s 749 mmHg 95%
19:00 +3°C° 0 mm 4 m/s 749 mmHg 95%
20:00 +3°C° 0 mm 4 m/s 749 mmHg 95%
21:00 +3°C° 0 mm 4 m/s 750 mmHg 95%
22:00 +3°C° 0 mm 4 m/s 750 mmHg 95%
23:00 +1°C° 0 mm 4 m/s 750 mmHg 96%

16 Aprilie, Vineri

Timp Temperatura Precipitaţii Vânt Presiune Umiditate
00:00 +2°C° 0 mm 3 m/s 749 mmHg 96%
01:00 +2°C° 0 mm 3 m/s 749 mmHg 97%
02:00 +2°C° 0.1 mm 3 m/s 749 mmHg 97%
03:00 +2°C° 0.1 mm 3 m/s 749 mmHg 98%
04:00 +2°C° 0.1 mm 3 m/s 749 mmHg 98%
05:00 +2°C° 0.1 mm 3 m/s 750 mmHg 98%
06:00 +2°C° 0.1 mm 3 m/s 750 mmHg 97%
07:00 +2°C° 0.1 mm 3 m/s 750 mmHg 97%
08:00 +2°C° 0 mm 3 m/s 751 mmHg 97%
09:00 +3°C° 0 mm 2 m/s 751 mmHg 97%
10:00 +4°C° 0 mm 2 m/s 751 mmHg 97%
11:00 +3°C° 0 mm 3 m/s 751 mmHg 96%
12:00 +3°C° 0 mm 3 m/s 752 mmHg 96%
13:00 +3°C° 0 mm 3 m/s 752 mmHg 95%
14:00 +4°C° 0 mm 3 m/s 752 mmHg 95%
15:00 +4°C° 0 mm 3 m/s 752 mmHg 94%
16:00 +4°C° 0 mm 3 m/s 752 mmHg 94%
17:00 +4°C° 0 mm 3 m/s 753 mmHg 95%
18:00 +4°C° 0 mm 3 m/s 753 mmHg 96%
19:00 +4°C° 0 mm 3 m/s 753 mmHg 97%
20:00 +4°C° 0 mm 3 m/s 753 mmHg 97%
21:00 +4°C° 0 mm 3 m/s 754 mmHg 97%
22:00 +4°C° 0 mm 3 m/s 754 mmHg 97%
23:00 +4°C° 0.1 mm 3 m/s 754 mmHg 96%
Arată mai mult

Formular de consimțământ

Meteoprog și furnizorii noștri de servicii pot stoca și accesa date personale, precum cookies, identificatori de dispozitiv sau alte tehnologii similare pe dispozitivul dumneavoastră și procesa astfel de date pentru a personaliza conținutul și reclamele, dar și pentru a oferi caracteristici de social media și pentru a analiza traficul.

  • Stocarea și/sau accesarea informațiilor pe dispozitivul dumneavoastră

    Cookies, identificatori de dispozitiv sau alte informații pot fi stocate sau accesate pe dispozitiv în scopurile indicate mai sus.

  • Reclame și conținut personalizat, evaluarea reclamelor și a conținutului, informații despre audiențe și dezvoltarea produselor

    Reclamele și conținutul pot fi personalizate pe baza unui profil. Pot fi adăugate date suplimentare pentru a personaliza mai bine reclamele și conținutul. Performanța reclamelor și conținutului poate fi măsurată. Pot fi obținute informații despre utilizatorii care au văzut reclamele și conținutul. Aceste date pot fi utilizate pentru a dezvolta sau îmbunătăți experiența utilizatorilor, sistemele și software-ul.

Dând clic pe ‘Sunt de acord’, permiteți utilizarea cookie-urilor menționate, a identificatorilor de dispozitiv, balizelor web sau altor tehnologii similare. Setările pot fi modificate din browser-ul dispozitivului dumneavoastră.

În anumite scopuri, interesele legitime pot prima asupra consimțământului. Puteți citi mai multe informații în acest sens în Politica privind Confidențialitatea Datelor și Cookie.